Location: *
(45.1961°N, 1.9694°E)
Time: 04:52:06
(UTC+00:00)

USA 229 DEB - Pass Details

Date: 25 August 2019
Orbit: 1003 x 1210 km, 63.4° (Epoch: 31 August)

Event Time Altitude Azimuth Distance (km) Brightness Sun altitude
Rises 20:57:17 0° 321° (NW) 3,955 8.2 -21.4°
Reaches altitude 10° 20:59:56 10° 321° (NW) 3,022 7.2 -21.8°
Maximum altitude 21:07:12 85° 235° (SW) 1,181 3.8 -22.7°
Enters shadow 21:10:12 41° 150° (SSE) 1,660 4.2 -23.1°
